Estevan Point, British Columbia

7:40 AM PDT on October 23, 2017 (GMT -0700)
Estevan Point

Weather History for CWEB - December, 2012

Change the Weather History Date:

Thursday, December 27, 2012

  Actual Average Record
Temperature  
Mean Temperature 37 °F -  
Max Temperature 43 °F - - ()
Min Temperature 31 °F - - ()
Degree Days  
Heating Degree Days 28    
Moisture  
Dew Point 38 °F    
Average Humidity 99    
Maximum Humidity 100    
Minimum Humidity 95    
Precipitation  
Precipitation 0.08 in - - ()
Sea Level Pressure  
Sea Level Pressure 30.04 in    
Wind  
Wind Speed 6 mph ()    
Max Wind Speed 12 mph    
Max Gust Speed 25 mph    
T = Trace of Precipitation, MM = Missing Value Source: Averaged Metar Reports

Daily Weather History Graph

Daily Weather History Graph

Search for Another Location

Airport or City:

Trip Planner

Search our weather history database for the weather conditions in past years. The results will help you decide how hot, cold, wet, or windy it might be!

Date:

Astronomy

Dec. 27, 2012 Rise Set
Actual Time 8:21 AM PST 4:33 PM PST
Civil Twilight 7:43 AM PST 5:11 PM PST
Nautical Twilight 7:02 AM PST 5:52 PM PST
Astronomical Twilight 6:24 AM PST 6:31 PM PST
Moon 4:25 PM PST (12/27) 7:34 AM PST (12/27)
Length of Visible Light 9h 27m
Length of Day
8h 12m
Full, 100% of the Moon is Illuminated
Dec 27
Full
Dec 28
Full
Jan 4
Last Quarter
Jan 11
New
Jan 18
First Quarter

Hourly Weather History & Observations

Time (PST) Temp. Windchill Dew Point Humidity Pressure Visibility Wind Dir Wind Speed Gust Speed Precip Events Conditions
12:00 AM 35.4 °F 31.5 °F 35.4 °F 100% 29.94 in - NNW 4.6 mph - N/A   Unknown
1:00 AM 34.7 °F 29.6 °F 34.7 °F 100% 29.96 in - NNW 5.8 mph - N/A   Unknown
2:00 AM 34.7 °F 30.6 °F 34.7 °F 100% 29.99 in - NNW 4.6 mph - N/A   Unknown
3:00 AM 33.4 °F 28.1 °F 33.4 °F 100% 30.00 in - NNE 5.8 mph - N/A   Unknown
4:00 AM 33 °F - 33 °F 100% 30.00 in - ENE 5.8 mph - -  
5:00 AM 31.3 °F - 31.3 °F 100% 30.01 in - East 2.3 mph - N/A   Unknown
6:00 AM 31.3 °F - 31.3 °F 100% 30.03 in - East 2.3 mph - N/A   Unknown
7:00 AM 32 °F - 32 °F 100% 30.03 in - NE 11.5 mph - -  
7:00 AM 32.0 °F 23.0 °F 32.0 °F 100% 30.03 in - NE 11.5 mph - N/A   Unknown
8:00 AM 31.6 °F 22.6 °F 31.6 °F 100% 30.02 in - ENE 11.5 mph - N/A   Unknown
9:00 AM 34.7 °F 30.6 °F 34.7 °F 100% 30.05 in - ESE 4.6 mph - N/A   Unknown
10:00 AM 35 °F - 35 °F 100% 30.09 in - East 8.1 mph - -  
10:00 AM 35.1 °F 28.6 °F 35.1 °F 100% 30.09 in - East 8.1 mph - 0.01 in   Unknown
11:00 AM 36.5 °F 30.3 °F 36.5 °F 100% 30.08 in - ENE 8.1 mph - N/A   Unknown
12:00 PM 40.3 °F 35.5 °F 40.3 °F 100% 30.08 in - East 6.9 mph - N/A   Unknown
1:00 PM 41 °F - 41 °F 99% 30.08 in - East 8.1 mph - -  
1:00 PM 40.8 °F 35.6 °F 40.8 °F 100% 30.08 in - East 8.1 mph - N/A   Unknown
2:00 PM 40.8 °F 35.6 °F 40.6 °F 99% 30.07 in - East 8.1 mph - N/A   Unknown
3:00 PM 41.4 °F 36.2 °F 41.0 °F 99% 30.06 in - East 8.1 mph - N/A   Unknown
4:00 PM 41 °F - 41 °F 100% 30.06 in - East 9.2 mph - -  
4:00 PM 41.4 °F 35.7 °F 41.0 °F 99% 30.06 in - East 9.2 mph - N/A   Unknown
5:00 PM 42.1 °F 36.6 °F 41.5 °F 98% 30.05 in - East 9.2 mph 18.4 mph 0.01 in   Unknown
6:00 PM 41.7 °F 36.1 °F 41.0 °F 97% 30.05 in - East 9.2 mph 18.4 mph 0.01 in   Unknown
7:00 PM 42 °F - 41 °F 97% 30.05 in - East 9.2 mph - -  
7:00 PM 42.1 °F 36.6 °F 41.4 °F 97% 30.05 in - East 9.2 mph 18.4 mph 0.02 in   Unknown
8:00 PM 41.9 °F 36.3 °F 41.2 °F 97% 30.04 in - East 9.2 mph - 0.02 in   Unknown
9:00 PM 42.4 °F 37.0 °F 41.7 °F 97% 30.04 in - East 9.2 mph 18.4 mph 0.01 in   Unknown
10:00 PM 43 °F - 42 °F 95% 30.03 in - East 10.4 mph - -  
10:00 PM 43.0 °F 37.2 °F 42.1 °F 97% 30.03 in - East 10.4 mph 20.7 mph N/A   Unknown
11:00 PM 43.3 °F 37.2 °F 42.1 °F 95% 30.04 in - East 11.5 mph 25.3 mph 0.01 in   Unknown